Location: Dimsdale
(55.1333°N, 118.9833°W)
Time: 23:35:17
(UTC+00:00)

MOZHAYETS 4 - Pass Details

Date: 12 December 2023
Orbit: 654 x 672 km, 98.3° (Epoch: 26 February)

Event Time Altitude Azimuth Distance (km) Brightness Sun altitude
Rises 00:23:08 0° 14° (NNE) 3,041 10.7 -7.4°
Reaches altitude 10° 00:25:23 10° 13° (NNE) 2,123 9.9 -7.6°
Maximum altitude 00:30:01 77° 288° (WNW) 700 7.9 -8.2°
Drops below altitude 10° 00:34:37 10° 204° (SSW) 2,105 11.1 -8.8°
Sets 00:36:50 0° 203° (SSW) 3,014 12.0 -9.1°
